This is the latest recevied weather packets stored in our database for station/object AK4FD. If no packets are shown the sender has not sent any weather packets the latest 1 day(s).
| Time | Temp. | Humidity | Pressure | Rain* | Wind** | Luminosity | Snow |
|---|---|---|---|---|---|---|---|
| 1778022098 | 24.44° C | 39% | 1013.8 hPa | 0 mm | 0 m/s | 19 W/m² | - |
| 1778021794 | 24.44° C | 39% | 1014 hPa | 0 mm | 0.45 m/s, 127° | 22 W/m² | - |
| 1778021491 | 24.44° C | 40% | 1014 hPa | 0 mm | 0.45 m/s, 182° | 24 W/m² | - |
| 1778021188 | 24.44° C | 39% | 1013.9 hPa | 0 mm | 0.45 m/s, 136° | 27 W/m² | - |
| 1778020885 | 24.44° C | 39% | 1014.1 hPa | 0 mm | 0.89 m/s, 79° | 30 W/m² | - |
| 1778020582 | 24.44° C | 39% | 1014.3 hPa | 0 mm | 0 m/s | 38 W/m² | - |
| 1778020278 | 24.44° C | 38% | 1014 hPa | 0 mm | 0.89 m/s, 264° | 38 W/m² | - |
| 1778019975 | 24.44° C | 37% | 1013.8 hPa | 0 mm | 0.45 m/s, 216° | 44 W/m² | - |
| 1778019671 | 25° C | 37% | 1013.8 hPa | 0 mm | 0.89 m/s, 93° | 26 W/m² | - |
| 1778019368 | 25° C | 37% | 1013.9 hPa | 0 mm | 0.45 m/s, 101° | 43 W/m² | - |
| 1778019065 | 25° C | 36% | 1014.1 hPa | 0 mm | 0.89 m/s, 43° | 43 W/m² | - |
| 1778018762 | 25.56° C | 35% | 1014 hPa | 0 mm | 0.89 m/s, 247° | 32 W/m² | - |
| 1778018460 | 25.56° C | 35% | 1014 hPa | 0 mm | 1.34 m/s, 78° | 39 W/m² | - |
| 1778018158 | 26.11° C | 35% | 1014.1 hPa | 0 mm | 0.89 m/s, 92° | 41 W/m² | - |
| 1778017855 | 26.11° C | 35% | 1014 hPa | 0 mm | 1.34 m/s, 86° | 62 W/m² | - |
| 1778017553 | 26.67° C | 34% | 1014.3 hPa | 0 mm | 0.45 m/s, 79° | 112 W/m² | - |
| 1778017250 | 26.67° C | 33% | 1014.3 hPa | 0 mm | 1.34 m/s, 230° | 106 W/m² | - |
| 1778016948 | 26.67° C | 34% | 1014.3 hPa | 0 mm | 0.89 m/s, 24° | 308 W/m² | - |
| 1778016644 | 26.11° C | 35% | 1014.3 hPa | 0 mm | 0 m/s | 363 W/m² | - |
| 1778016340 | 26.11° C | 34% | 1014.4 hPa | 0 mm | 0 m/s | 133 W/m² | - |
| 1778016038 | 27.22° C | 34% | 1014.4 hPa | 0 mm | 0.45 m/s, 144° | 107 W/m² | - |
| 1778015735 | 27.22° C | 34% | 1014.5 hPa | 0 mm | 0.45 m/s, 127° | 382 W/m² | - |
| 1778015431 | 26.67° C | 34% | 1014.4 hPa | 0 mm | 0.45 m/s, 75° | 408 W/m² | - |
| 1778015128 | 26.67° C | 33% | 1014.4 hPa | 0 mm | 0.89 m/s, 108° | 430 W/m² | - |
| 1778014825 | 26.67° C | 33% | 1014.4 hPa | 0 mm | 0 m/s | 181 W/m² | - |
* Rain latest hour (hover to see other rain measurements)
** Current wind speed in m/s (hover to see current wind gust speed)